Location: Czu?�w
(50.1404°N, 18.9919°E)
Time: 03:30:42
(UTC+00:00)

ERBS - Pass Details

Date: 27 October 2020
Orbit: 408 x 422 km, 57.0° (Epoch: 24 November)

Event Time Altitude Azimuth Distance (km) Brightness Sun altitude
Rises 16:42:56 0° 285° (WNW) 2,362 7.5 -12.4°
Reaches altitude 10° 16:45:16 10° 300° (WNW) 1,503 5.9 -12.8°
Maximum altitude 16:48:06 25° 357° (N) 906 3.9 -13.2°
Enters shadow 16:49:50 17° 40° (NE) 1,169 4.1 -13.5°
